sat.trackr.live / text

‹ back to catalog

2023-081A

NORAD 56846 · 2023-081A

PAYLOAD ACTIVE UNKNOWN

§ Identity

Operator
Country
PRC
Launch date
2023-06-07
Launch site
JSC
Launch vehicle
Mass (kg)
RCS (m²)

External: N2YO · Heavens-Above · Gunter

§ Orbital elements

Epoch: 2026-09-21T21:50:47.137920Z

Period
94.46 min
Inclination
97.3614°
Eccentricity
0.0001354
Mean motion
15.24427590 rev/d
Perigee alt
491.6 km
Apogee alt
493.4 km
Semi-major
6,870.6 km
B*
2.3881e-4
RAAN
333.2885°
Arg perigee
120.3924°
Mean anomaly
239.7448°
Rev number
18,274

§ Raw data

2023-081A1 56846U 23081A   26264.91026780  .00005788  00000+0  23881-3 0  99982 56846  97.3614 333.2885 0001354 120.3924 239.7448 15.24427590182745

JSON: /api/v1/satellites/56846 · /tle

For live sub-satellite position, see the globe view (requires WebGL).

§ Visibility from observer

Set your observer location to see the next 7 days of passes ≥ 10°. The values pass through the URL so the page stays shareable.

No JS? Fill the form by hand. The geolocation button needs JavaScript.